Time,TemperatureF,DewpointF,PressureIn,WindDirection,WindDirectionDegrees,WindSpeedMPH,WindSpeedGustMPH,Humidity,HourlyPrecipIn,Conditions,Clouds,dailyrainin,SoftwareType,DateUTC
2013-08-09 00:00:00,69.2,66.5,21.94,South,171,0.0,0.0,91,0.00,,SKC,0.03,VWS V14.01,2013-08-09 04:00:00,
2013-08-09 00:01:00,69.2,66.5,21.94,South,171,0.0,0.0,91,0.00,,SKC,0.03,VWS V14.01,2013-08-09 04:01:00,
2013-08-09 00:06:00,68.9,66.2,21.94,South,171,0.0,0.0,91,0.00,,SKC,0.00,VWS V14.01,2013-08-09 04:06:00,
2013-08-09 00:11:00,68.8,66.1,21.94,South,171,0.0,0.0,91,0.00,,SKC,0.00,VWS V14.01,2013-08-09 04:11:00,
2013-08-09 00:16:00,68.9,66.2,21.94,South,171,1.0,1.0,91,0.00,,SKC,0.00,VWS V14.01,2013-08-09 04:16:00,
2013-08-09 00:21:00,69.0,66.3,21.94,South,171,0.0,2.0,91,0.00,,SKC,0.00,VWS V14.01,2013-08-09 04:21:00,
2013-08-09 00:26:00,69.1,66.4,21.94,South,171,1.0,2.0,91,0.00,,SKC,0.00,VWS V14.01,2013-08-09 04:26:00,
2013-08-09 00:31:00,69.2,66.5,21.94,South,171,1.0,1.0,91,0.00,,SKC,0.00,VWS V14.01,2013-08-09 04:31:00,
2013-08-09 00:36:00,69.2,66.2,21.94,South,171,0.0,1.0,90,0.00,,SKC,0.00,VWS V14.01,2013-08-09 04:36:00,
2013-08-09 00:41:00,69.1,66.1,21.94,South,171,0.0,1.0,90,0.00,,SKC,0.00,VWS V14.01,2013-08-09 04:41:00,
2013-08-09 00:46:00,69.1,66.1,21.94,South,171,0.0,1.0,90,0.00,,SKC,0.00,VWS V14.01,2013-08-09 04:46:00,
2013-08-09 00:51:00,69.1,65.7,21.94,South,171,0.0,2.0,89,0.00,,SKC,0.00,VWS V14.01,2013-08-09 04:51:00,
2013-08-09 00:56:00,69.1,65.7,21.94,South,171,0.0,0.0,89,0.00,,SKC,0.00,VWS V14.01,2013-08-09 04:56:00,
2013-08-09 01:01:00,69.2,65.8,21.94,South,171,0.0,0.0,89,0.00,,SKC,0.00,VWS V14.01,2013-08-09 05:01:00,
2013-08-09 01:06:00,69.1,66.1,21.94,South,171,0.0,0.0,90,0.00,,SKC,0.00,VWS V14.01,2013-08-09 05:06:00,
2013-08-09 01:11:00,69.0,65.6,21.94,South,171,3.0,3.0,89,0.00,,SKC,0.00,VWS V14.01,2013-08-09 05:11:00,
2013-08-09 01:16:00,69.0,65.6,21.94,South,191,0.0,1.0,89,0.00,,SKC,0.00,VWS V14.01,2013-08-09 05:16:00,
2013-08-09 01:21:00,69.2,65.8,21.94,South,191,0.0,4.0,89,0.00,,SKC,0.00,VWS V14.01,2013-08-09 05:21:00,
2013-08-09 01:26:00,69.3,65.9,21.94,South,191,0.0,1.0,89,0.00,,SKC,0.00,VWS V14.01,2013-08-09 05:26:00,
2013-08-09 01:31:00,69.4,66.0,21.94,South,191,0.0,5.0,89,0.00,,SKC,0.00,VWS V14.01,2013-08-09 05:31:00,
2013-08-09 01:36:00,69.5,66.1,21.94,South,191,0.0,2.0,89,0.00,,SKC,0.00,VWS V14.01,2013-08-09 05:36:00,
2013-08-09 01:41:00,69.4,66.0,21.94,SSW,192,0.0,0.0,89,0.00,,SKC,0.00,VWS V14.01,2013-08-09 05:41:00,
2013-08-09 01:46:00,69.3,65.9,21.94,SSW,192,1.0,1.0,89,0.00,,SKC,0.00,VWS V14.01,2013-08-09 05:46:00,
2013-08-09 01:51:00,69.2,65.8,21.94,SSW,194,2.0,2.0,89,0.00,,SKC,0.00,VWS V14.01,2013-08-09 05:51:00,
2013-08-09 01:56:00,69.2,65.8,21.94,SSW,194,0.0,0.0,89,0.00,,SKC,0.00,VWS V14.01,2013-08-09 05:56:00,
2013-08-09 02:01:00,69.1,65.7,21.94,SSW,194,1.0,1.0,89,0.00,,SKC,0.00,VWS V14.01,2013-08-09 06:01:00,
2013-08-09 02:06:00,69.1,65.7,21.94,SSW,194,5.0,5.0,89,0.00,,SKC,0.00,VWS V14.01,2013-08-09 06:06:00,
2013-08-09 02:11:00,69.1,65.7,21.94,SSW,194,2.0,3.0,89,0.00,,SKC,0.00,VWS V14.01,2013-08-09 06:11:00,
2013-08-09 02:16:00,69.0,65.6,21.94,SSW,194,0.0,1.0,89,0.00,,SKC,0.00,VWS V14.01,2013-08-09 06:16:00,
2013-08-09 02:21:00,69.0,65.6,21.94,SSW,194,0.0,0.0,89,0.00,,SKC,0.00,VWS V14.01,2013-08-09 06:21:00,
2013-08-09 02:26:00,68.9,65.5,21.94,SSW,194,0.0,3.0,89,0.00,,SKC,0.00,VWS V14.01,2013-08-09 06:26:00,
2013-08-09 02:31:00,68.8,65.4,21.94,SSW,194,2.0,3.0,89,0.00,,SKC,0.00,VWS V14.01,2013-08-09 06:31:00,
2013-08-09 02:36:00,68.7,65.3,21.94,SSW,194,3.0,3.0,89,0.00,,SKC,0.00,VWS V14.01,2013-08-09 06:36:00,
2013-08-09 02:41:00,68.6,65.2,21.94,SSW,194,1.0,4.0,89,0.00,,SKC,0.00,VWS V14.01,2013-08-09 06:41:00,
2013-08-09 02:46:00,68.7,65.3,21.94,South,191,2.0,4.0,89,0.00,,SKC,0.00,VWS V14.01,2013-08-09 06:46:00,
2013-08-09 02:51:00,68.7,65.3,21.94,SSW,193,2.0,5.0,89,0.00,,SKC,0.00,VWS V14.01,2013-08-09 06:51:00,
2013-08-09 02:56:00,68.6,65.2,21.94,SSW,192,3.0,3.0,89,0.00,,SKC,0.00,VWS V14.01,2013-08-09 06:56:00,
2013-08-09 03:01:00,68.5,65.1,21.94,South,190,1.0,1.0,89,0.00,,SKC,0.00,VWS V14.01,2013-08-09 07:01:00,
2013-08-09 03:06:00,68.5,65.1,21.94,South,173,1.0,2.0,89,0.00,,SKC,0.00,VWS V14.01,2013-08-09 07:06:00,
2013-08-09 03:11:00,68.5,65.1,21.94,South,173,1.0,2.0,89,0.00,,SKC,0.00,VWS V14.01,2013-08-09 07:11:00,
2013-08-09 03:16:00,68.3,64.9,21.94,South,172,1.0,1.0,89,0.00,,SKC,0.00,VWS V14.01,2013-08-09 07:16:00,
2013-08-09 03:21:00,68.2,65.2,21.94,South,173,1.0,1.0,90,0.00,,SKC,0.00,VWS V14.01,2013-08-09 07:21:00,
2013-08-09 03:25:00,68.1,65.1,21.94,South,173,0.0,1.0,90,0.00,,SKC,0.00,VWS V14.01,2013-08-09 07:25:00,
2013-08-09 03:30:00,68.1,65.1,21.94,South,173,1.0,1.0,90,0.00,,SKC,0.00,VWS V14.01,2013-08-09 07:30:00,
2013-08-09 03:35:00,68.1,65.1,21.94,South,174,2.0,3.0,90,0.00,,SKC,0.00,VWS V14.01,2013-08-09 07:35:00,
2013-08-09 03:40:00,68.4,65.0,21.94,South,178,4.0,4.0,89,0.00,,SKC,0.00,VWS V14.01,2013-08-09 07:40:00,
2013-08-09 03:45:00,68.7,65.3,21.94,South,178,2.0,2.0,89,0.00,,SKC,0.00,VWS V14.01,2013-08-09 07:45:00,
2013-08-09 03:50:00,68.9,65.2,21.94,South,178,5.0,5.0,88,0.00,,SKC,0.00,VWS V14.01,2013-08-09 07:50:00,
2013-08-09 03:55:00,69.1,65.4,21.94,South,178,0.0,0.0,88,0.00,,SKC,0.00,VWS V14.01,2013-08-09 07:55:00,
2013-08-09 04:00:00,69.2,65.5,21.94,SSW,202,0.0,0.0,88,0.00,,SKC,0.00,VWS V14.01,2013-08-09 08:00:00,
2013-08-09 04:05:00,69.3,65.3,21.94,NE,53,4.0,5.0,87,0.00,,SKC,0.00,VWS V14.01,2013-08-09 08:05:00,
2013-08-09 04:10:00,69.4,65.4,21.94,NE,53,1.0,1.0,87,0.00,,SKC,0.00,VWS V14.01,2013-08-09 08:10:00,
2013-08-09 04:15:00,69.4,65.4,21.94,NE,53,0.0,0.0,87,0.00,,SKC,0.00,VWS V14.01,2013-08-09 08:15:00,
2013-08-09 04:20:00,69.5,65.5,21.94,NE,53,0.0,0.0,87,0.00,,SKC,0.00,VWS V14.01,2013-08-09 08:20:00,
2013-08-09 04:25:00,69.5,65.5,21.94,NE,53,0.0,0.0,87,0.00,,SKC,0.00,VWS V14.01,2013-08-09 08:25:00,
2013-08-09 04:30:00,69.5,65.5,18.49,ENE,58,1.0,2.0,87,0.00,,SKC,0.00,VWS V14.01,2013-08-09 08:30:00,
2013-08-09 04:35:00,69.6,65.6,18.49,ENE,60,1.0,1.0,87,0.00,,SKC,0.00,VWS V14.01,2013-08-09 08:35:00,
2013-08-09 04:40:00,69.5,65.5,18.49,ENE,60,0.0,1.0,87,0.00,,SKC,0.00,VWS V14.01,2013-08-09 08:40:00,
2013-08-09 04:45:00,69.4,65.4,18.49,ENE,72,2.0,3.0,87,0.00,,SKC,0.00,VWS V14.01,2013-08-09 08:45:00,
2013-08-09 04:50:00,69.4,65.4,18.49,East,83,1.0,1.0,87,0.00,,SKC,0.00,VWS V14.01,2013-08-09 08:50:00,
2013-08-09 04:55:00,69.5,65.5,18.49,SSE,148,0.0,1.0,87,0.00,,SKC,0.00,VWS V14.01,2013-08-09 08:55:00,
2013-08-09 05:00:00,69.5,65.5,18.49,SSW,204,2.0,2.0,87,0.00,,SKC,0.00,VWS V14.01,2013-08-09 09:00:00,
2013-08-09 05:05:00,69.3,65.3,18.49,SSW,203,0.0,0.0,87,0.00,,SKC,0.00,VWS V14.01,2013-08-09 09:05:00,
2013-08-09 05:10:00,69.3,65.3,18.49,SW,227,4.0,5.0,87,0.00,,SKC,0.00,VWS V14.01,2013-08-09 09:10:00,
2013-08-09 05:15:00,69.4,65.4,18.49,South,180,1.0,1.0,87,0.00,,SKC,0.00,VWS V14.01,2013-08-09 09:15:00,
2013-08-09 05:20:00,69.4,65.4,18.49,SSE,165,2.0,2.0,87,0.00,,SKC,0.00,VWS V14.01,2013-08-09 09:20:00,
2013-08-09 05:25:00,69.6,65.6,18.49,SSE,158,0.0,0.0,87,0.00,,SKC,0.00,VWS V14.01,2013-08-09 09:25:00,
2013-08-09 05:30:00,69.6,65.6,18.49,SSW,192,4.0,6.0,87,0.00,,SKC,0.00,VWS V14.01,2013-08-09 09:30:00,
2013-08-09 05:35:00,69.7,65.3,18.49,South,191,0.0,0.0,86,0.00,,SKC,0.00,VWS V14.01,2013-08-09 09:35:00,
2013-08-09 05:40:00,69.7,65.3,18.49,South,190,0.0,0.0,86,0.00,,SKC,0.00,VWS V14.01,2013-08-09 09:40:00,
2013-08-09 05:45:00,69.6,65.6,18.49,South,170,0.0,0.0,87,0.00,,SKC,0.00,VWS V14.01,2013-08-09 09:45:00,
2013-08-09 05:50:00,69.4,65.4,18.49,SSE,159,0.0,1.0,87,0.00,,SKC,0.00,VWS V14.01,2013-08-09 09:50:00,
2013-08-09 05:55:00,69.4,65.4,18.49,SSE,159,0.0,3.0,87,0.00,,SKC,0.00,VWS V14.01,2013-08-09 09:55:00,
2013-08-09 06:00:00,69.2,65.5,18.49,SSE,159,3.0,3.0,88,0.00,,SKC,0.00,VWS V14.01,2013-08-09 10:00:00,
2013-08-09 06:05:00,69.0,65.3,18.49,SSE,159,0.0,0.0,88,0.00,,SKC,0.00,VWS V14.01,2013-08-09 10:05:00,
2013-08-09 06:10:00,68.9,65.5,18.49,SSE,155,0.0,2.0,89,0.00,,SKC,0.00,VWS V14.01,2013-08-09 10:10:00,
2013-08-09 06:15:00,68.9,65.5,18.49,SSE,155,0.0,0.0,89,0.00,,SKC,0.00,VWS V14.01,2013-08-09 10:15:00,
2013-08-09 06:20:00,68.9,65.5,18.49,SE,136,0.0,3.0,89,0.00,,SKC,0.00,VWS V14.01,2013-08-09 10:20:00,
2013-08-09 06:25:00,68.8,65.4,18.49,SE,144,0.0,0.0,89,0.00,,SKC,0.00,VWS V14.01,2013-08-09 10:25:00,
2013-08-09 06:30:00,68.8,65.4,18.49,SE,144,0.0,0.0,89,0.00,,SKC,0.00,VWS V14.01,2013-08-09 10:30:00,
2013-08-09 06:35:00,68.9,65.5,18.49,SE,144,0.0,0.0,89,0.00,,SKC,0.00,VWS V14.01,2013-08-09 10:35:00,
2013-08-09 06:40:00,68.8,65.4,18.49,SE,144,0.0,0.0,89,0.00,,SKC,0.00,VWS V14.01,2013-08-09 10:40:00,
2013-08-09 06:45:00,68.5,65.1,18.49,SE,144,0.0,0.0,89,0.00,,SKC,0.00,VWS V14.01,2013-08-09 10:45:00,
2013-08-09 06:50:00,68.0,65.0,18.49,SE,144,0.0,0.0,90,0.00,,SKC,0.00,VWS V14.01,2013-08-09 10:50:00,
2013-08-09 06:55:00,67.7,65.0,18.49,SE,144,2.0,2.0,91,0.00,,SKC,0.00,VWS V14.01,2013-08-09 10:55:00,
2013-08-09 07:00:00,67.3,64.6,18.49,SE,144,0.0,0.0,91,0.00,,SKC,0.00,VWS V14.01,2013-08-09 11:00:00,
2013-08-09 07:05:00,67.1,64.7,18.49,SE,144,1.0,2.0,92,0.00,,SKC,0.00,VWS V14.01,2013-08-09 11:05:00,
2013-08-09 07:10:00,67.1,64.7,18.49,SE,144,0.0,1.0,92,0.00,,SKC,0.00,VWS V14.01,2013-08-09 11:10:00,
2013-08-09 07:15:00,67.3,64.9,18.49,SE,144,0.0,1.0,92,0.00,,SKC,0.00,VWS V14.01,2013-08-09 11:15:00,
2013-08-09 07:20:00,67.7,65.0,18.49,SSW,196,2.0,5.0,91,0.00,,SKC,0.00,VWS V14.01,2013-08-09 11:20:00,
2013-08-09 07:25:00,68.1,65.1,18.49,SSW,207,2.0,2.0,90,0.00,,SKC,0.00,VWS V14.01,2013-08-09 11:25:00,
2013-08-09 07:30:00,68.3,65.3,18.49,SSW,209,0.0,3.0,90,0.00,,SKC,0.00,VWS V14.01,2013-08-09 11:30:00,
2013-08-09 07:35:00,68.5,65.5,18.49,SSW,206,2.0,4.0,90,0.00,,SKC,0.00,VWS V14.01,2013-08-09 11:35:00,
2013-08-09 07:40:00,68.6,65.2,18.49,SSW,203,2.0,4.0,89,0.00,,SKC,0.00,VWS V14.01,2013-08-09 11:40:00,
2013-08-09 07:45:00,68.7,65.3,18.49,SSW,202,0.0,0.0,89,0.00,,SKC,0.00,VWS V14.01,2013-08-09 11:45:00,
2013-08-09 07:50:00,69.0,65.6,18.49,SSW,203,2.0,2.0,89,0.00,,SKC,0.00,VWS V14.01,2013-08-09 11:50:00,
2013-08-09 07:55:00,69.4,65.7,18.49,SSW,201,3.0,4.0,88,0.00,,SKC,0.00,VWS V14.01,2013-08-09 11:55:00,
2013-08-09 08:00:00,69.7,66.0,18.49,South,188,0.0,2.0,88,0.00,,SKC,0.00,VWS V14.01,2013-08-09 12:00:00,
2013-08-09 08:05:00,70.1,66.1,18.49,South,188,0.0,2.0,87,0.00,,SKC,0.00,VWS V14.01,2013-08-09 12:05:00,
2013-08-09 08:10:00,70.1,66.1,18.49,South,188,1.0,2.0,87,0.00,,SKC,0.00,VWS V14.01,2013-08-09 12:10:00,
2013-08-09 08:15:00,70.0,66.3,18.49,South,188,0.0,0.0,88,0.00,,SKC,0.00,VWS V14.01,2013-08-09 12:15:00,
2013-08-09 08:20:00,70.0,66.3,18.49,South,187,2.0,2.0,88,0.00,,SKC,0.00,VWS V14.01,2013-08-09 12:20:00,
2013-08-09 08:25:00,70.2,66.2,18.49,South,188,0.0,2.0,87,0.00,,SKC,0.00,VWS V14.01,2013-08-09 12:25:00,
2013-08-09 08:30:00,70.9,66.5,18.49,South,188,3.0,4.0,86,0.00,,SKC,0.00,VWS V14.01,2013-08-09 12:30:00,
2013-08-09 08:35:00,71.5,66.8,18.49,SSW,196,2.0,6.0,85,0.00,,SKC,0.00,VWS V14.01,2013-08-09 12:35:00,
2013-08-09 08:40:00,72.0,66.9,18.49,SSW,196,0.0,3.0,84,0.00,,SKC,0.00,VWS V14.01,2013-08-09 12:40:00,
2013-08-09 08:45:00,72.4,66.9,18.49,SSW,196,0.0,0.0,83,0.00,,SKC,0.00,VWS V14.01,2013-08-09 12:45:00,
2013-08-09 08:50:00,73.1,67.3,18.49,SSW,196,0.0,0.0,82,0.00,,SKC,0.00,VWS V14.01,2013-08-09 12:50:00,
2013-08-09 08:55:00,73.7,67.2,18.49,SSW,196,0.0,0.0,80,0.00,,SKC,0.00,VWS V14.01,2013-08-09 12:55:00,
2013-08-09 09:00:00,74.2,67.3,18.49,SSW,194,0.0,2.0,79,0.00,,SKC,0.00,VWS V14.01,2013-08-09 13:00:00,
2013-08-09 09:05:00,74.9,67.9,18.49,WSW,255,1.0,1.0,79,0.00,,SKC,0.00,VWS V14.01,2013-08-09 13:05:00,
2013-08-09 09:10:00,75.1,67.8,18.49,SSW,198,0.0,1.0,78,0.00,,SKC,0.00,VWS V14.01,2013-08-09 13:10:00,
2013-08-09 09:15:00,75.1,67.4,18.49,NNW,331,0.0,2.0,77,0.00,,SKC,0.00,VWS V14.01,2013-08-09 13:15:00,
2013-08-09 09:20:00,74.8,67.5,18.49,North,9,1.0,1.0,78,0.00,,SKC,0.00,VWS V14.01,2013-08-09 13:20:00,
2013-08-09 09:25:00,74.6,67.3,18.49,NE,36,0.0,4.0,78,0.00,,SKC,0.00,VWS V14.01,2013-08-09 13:25:00,
2013-08-09 09:30:00,74.5,67.2,18.49,NW,321,2.0,2.0,78,0.00,,SKC,0.00,VWS V14.01,2013-08-09 13:30:00,
2013-08-09 09:35:00,74.3,66.6,18.49,SSW,194,3.0,5.0,77,0.00,,SKC,0.00,VWS V14.01,2013-08-09 13:35:00,
2013-08-09 09:40:00,74.3,66.6,18.49,South,183,1.0,4.0,77,0.00,,SKC,0.00,VWS V14.01,2013-08-09 13:40:00,
2013-08-09 09:45:00,74.6,66.9,18.49,SSE,152,0.0,1.0,77,0.00,,SKC,0.00,VWS V14.01,2013-08-09 13:45:00,
2013-08-09 09:50:00,75.1,67.0,18.49,WSW,249,2.0,8.0,76,0.00,,SKC,0.00,VWS V14.01,2013-08-09 13:50:00,
2013-08-09 09:55:00,75.4,66.9,18.49,West,277,0.0,3.0,75,0.00,,SKC,0.00,VWS V14.01,2013-08-09 13:55:00,
2013-08-09 10:00:00,75.7,67.2,18.49,West,276,0.0,0.0,75,0.00,,SKC,0.00,VWS V14.01,2013-08-09 14:00:00,
2013-08-09 10:05:00,75.8,66.9,18.49,WSW,248,0.0,4.0,74,0.00,,SKC,0.00,VWS V14.01,2013-08-09 14:05:00,
2013-08-09 10:10:00,76.0,67.1,18.49,WSW,253,1.0,3.0,74,0.00,,SKC,0.00,VWS V14.01,2013-08-09 14:10:00,
2013-08-09 10:15:00,75.9,67.4,18.49,WSW,254,0.0,1.0,75,0.00,,SKC,0.00,VWS V14.01,2013-08-09 14:15:00,
2013-08-09 10:20:00,75.7,67.2,18.49,SW,236,3.0,4.0,75,0.00,,SKC,0.00,VWS V14.01,2013-08-09 14:20:00,
2013-08-09 10:25:00,75.6,67.5,18.49,SSW,209,2.0,2.0,76,0.00,,SKC,0.00,VWS V14.01,2013-08-09 14:25:00,
2013-08-09 10:30:00,75.7,67.6,18.49,SSW,198,4.0,4.0,76,0.00,,SKC,0.00,VWS V14.01,2013-08-09 14:30:00,
2013-08-09 10:35:00,76.2,67.7,18.49,SSW,196,3.0,3.0,75,0.00,,SKC,0.00,VWS V14.01,2013-08-09 14:35:00,
2013-08-09 10:40:00,76.8,67.9,18.49,ESE,103,7.0,7.0,74,0.00,,SKC,0.00,VWS V14.01,2013-08-09 14:40:00,
2013-08-09 10:45:00,76.7,67.8,18.49,SSW,198,0.0,0.0,74,0.00,,SKC,0.00,VWS V14.01,2013-08-09 14:45:00,
2013-08-09 10:50:00,77.0,68.5,18.49,ESE,122,1.0,1.0,75,0.00,,SKC,0.00,VWS V14.01,2013-08-09 14:50:00,
2013-08-09 10:54:00,77.5,68.2,18.49,East,95,3.0,4.0,73,0.00,,SKC,0.00,VWS V14.01,2013-08-09 14:54:00,
2013-08-09 10:59:00,77.9,68.2,18.49,NNW,346,1.0,1.0,72,0.00,,SKC,0.00,VWS V14.01,2013-08-09 14:59:00,
2013-08-09 11:04:00,78.2,68.0,18.49,WSW,240,1.0,1.0,71,0.00,,SKC,0.00,VWS V14.01,2013-08-09 15:04:00,
2013-08-09 11:09:00,78.4,68.2,18.49,ENE,65,4.0,4.0,71,0.00,,SKC,0.00,VWS V14.01,2013-08-09 15:09:00,
2013-08-09 11:14:00,78.4,69.0,18.49,SE,132,0.0,1.0,73,0.00,,SKC,0.00,VWS V14.01,2013-08-09 15:14:00,
2013-08-09 11:19:00,78.7,68.5,18.49,ESE,107,0.0,0.0,71,0.00,,SKC,0.00,VWS V14.01,2013-08-09 15:19:00,
2013-08-09 11:24:00,78.6,68.4,18.49,East,89,2.0,5.0,71,0.00,,SKC,0.00,VWS V14.01,2013-08-09 15:24:00,
2013-08-09 11:29:00,77.9,67.8,18.49,SE,142,3.0,3.0,71,0.00,,SKC,0.00,VWS V14.01,2013-08-09 15:29:00,
2013-08-09 11:34:00,77.5,67.4,18.49,North,9,2.0,2.0,71,0.00,,SKC,0.00,VWS V14.01,2013-08-09 15:34:00,
2013-08-09 11:39:00,78.2,68.4,18.49,SSW,202,4.0,4.0,72,0.00,,SKC,0.00,VWS V14.01,2013-08-09 15:39:00,
2013-08-09 11:44:00,78.7,68.9,18.49,SSW,202,2.0,5.0,72,0.00,,SKC,0.00,VWS V14.01,2013-08-09 15:44:00,
2013-08-09 11:49:00,78.7,68.5,18.49,South,188,5.0,5.0,71,0.00,,SKC,0.00,VWS V14.01,2013-08-09 15:49:00,
2013-08-09 11:54:00,79.0,68.4,18.49,SW,229,1.0,4.0,70,0.00,,SKC,0.00,VWS V14.01,2013-08-09 15:54:00,
2013-08-09 11:59:00,79.2,69.4,18.49,SSE,168,3.0,4.0,72,0.00,,SKC,0.00,VWS V14.01,2013-08-09 15:59:00,
2013-08-09 12:04:00,79.1,68.1,18.49,SSW,203,2.0,4.0,69,0.00,,SKC,0.00,VWS V14.01,2013-08-09 16:04:00,
2013-08-09 12:09:00,78.5,68.7,18.49,WSW,250,0.0,0.0,72,0.00,,SKC,0.00,VWS V14.01,2013-08-09 16:09:00,
2013-08-09 12:14:00,78.6,68.4,18.49,SSW,205,0.0,1.0,71,0.00,,SKC,0.00,VWS V14.01,2013-08-09 16:14:00,
2013-08-09 12:19:00,78.9,68.7,18.49,South,190,2.0,3.0,71,0.00,,SKC,0.00,VWS V14.01,2013-08-09 16:19:00,
2013-08-09 12:24:00,79.3,68.7,18.49,South,186,2.0,2.0,70,0.00,,SKC,0.00,VWS V14.01,2013-08-09 16:24:00,
2013-08-09 12:29:00,79.4,68.3,18.49,North,10,0.0,0.0,69,0.00,,SKC,0.00,VWS V14.01,2013-08-09 16:29:00,
2013-08-09 12:34:00,79.3,69.1,18.49,North,10,1.0,1.0,71,0.00,,SKC,0.00,VWS V14.01,2013-08-09 16:34:00,
2013-08-09 12:39:00,78.7,67.3,18.49,North,360,6.0,6.0,68,0.00,,SKC,0.00,VWS V14.01,2013-08-09 16:39:00,
2013-08-09 12:44:00,78.7,67.7,18.49,NNE,13,0.0,0.0,69,0.00,,SKC,0.00,VWS V14.01,2013-08-09 16:44:00,
2013-08-09 12:49:00,79.3,68.3,18.49,SE,129,3.0,4.0,69,0.00,,SKC,0.00,VWS V14.01,2013-08-09 16:49:00,
2013-08-09 12:54:00,80.1,68.2,18.49,SE,125,1.0,1.0,67,0.00,,SKC,0.00,VWS V14.01,2013-08-09 16:54:00,
2013-08-09 12:59:00,80.7,68.3,18.49,WSW,254,3.0,3.0,66,0.00,,SKC,0.00,VWS V14.01,2013-08-09 16:59:00,
2013-08-09 13:04:00,81.4,68.5,18.49,North,355,1.0,6.0,65,0.00,,SKC,0.00,VWS V14.01,2013-08-09 17:04:00,
2013-08-09 13:09:00,82.3,68.5,18.49,WNW,288,0.0,3.0,63,0.00,,SKC,0.00,VWS V14.01,2013-08-09 17:09:00,
2013-08-09 13:14:00,82.3,68.5,18.49,NNE,28,4.0,6.0,63,0.00,,SKC,0.00,VWS V14.01,2013-08-09 17:14:00,
2013-08-09 13:19:00,81.5,68.2,18.49,North,355,2.0,7.0,64,0.00,,SKC,0.00,VWS V14.01,2013-08-09 17:19:00,
2013-08-09 13:24:00,81.3,68.9,18.49,NNE,21,5.0,6.0,66,0.00,,SKC,0.00,VWS V14.01,2013-08-09 17:24:00,
2013-08-09 13:29:00,81.2,68.8,18.49,NNW,345,0.0,3.0,66,0.00,,SKC,0.00,VWS V14.01,2013-08-09 17:29:00,
2013-08-09 13:34:00,81.5,68.6,18.49,NW,319,5.0,5.0,65,0.00,,SKC,0.00,VWS V14.01,2013-08-09 17:34:00,
2013-08-09 13:39:00,81.5,69.1,18.49,SSW,205,1.0,3.0,66,0.00,,SKC,0.00,VWS V14.01,2013-08-09 17:39:00,
2013-08-09 13:44:00,81.6,69.6,18.49,East,90,2.0,5.0,67,0.00,,SKC,0.00,VWS V14.01,2013-08-09 17:44:00,
2013-08-09 13:49:00,81.7,69.7,18.49,South,188,3.0,4.0,67,0.00,,SKC,0.00,VWS V14.01,2013-08-09 17:49:00,
2013-08-09 13:54:00,81.4,69.8,18.49,SSE,162,1.0,1.0,68,0.00,,SKC,0.00,VWS V14.01,2013-08-09 17:54:00,
2013-08-09 13:59:00,82.0,70.0,18.49,SE,146,1.0,2.0,67,0.00,,SKC,0.00,VWS V14.01,2013-08-09 17:59:00,
2013-08-09 14:04:00,82.8,69.4,18.49,NNE,25,0.0,2.0,64,0.00,,SKC,0.00,VWS V14.01,2013-08-09 18:04:00,
2013-08-09 14:09:00,82.3,68.0,18.49,West,280,3.0,6.0,62,0.00,,SKC,0.00,VWS V14.01,2013-08-09 18:09:00,
2013-08-09 14:14:00,82.1,67.3,18.49,SW,217,4.0,6.0,61,0.00,,SKC,0.00,VWS V14.01,2013-08-09 18:14:00,
2013-08-09 14:19:00,82.4,68.6,18.49,SW,221,3.0,3.0,63,0.00,,SKC,0.00,VWS V14.01,2013-08-09 18:19:00,
2013-08-09 14:24:00,83.0,68.2,17.93,South,179,2.0,4.0,61,0.00,,SKC,0.00,VWS V14.01,2013-08-09 18:24:00,
2013-08-09 14:29:00,83.1,67.8,17.93,SSW,195,0.0,2.0,60,0.00,,SKC,0.00,VWS V14.01,2013-08-09 18:29:00,
2013-08-09 14:34:00,83.1,68.7,17.93,SW,215,0.0,2.0,62,0.00,,SKC,0.00,VWS V14.01,2013-08-09 18:34:00,
2013-08-09 14:39:00,84.4,69.0,17.93,SE,126,3.0,3.0,60,0.00,,SKC,0.00,VWS V14.01,2013-08-09 18:39:00,
2013-08-09 14:44:00,85.0,68.6,17.93,North,5,4.0,4.0,58,0.00,,SKC,0.00,VWS V14.01,2013-08-09 18:44:00,
2013-08-09 14:49:00,84.7,68.3,17.93,SE,142,3.0,4.0,58,0.00,,SKC,0.00,VWS V14.01,2013-08-09 18:49:00,
2013-08-09 14:54:00,84.4,68.5,17.93,SW,224,2.0,7.0,59,0.00,,SKC,0.00,VWS V14.01,2013-08-09 18:54:00,
2013-08-09 14:59:00,84.4,69.0,17.93,NNE,33,3.0,3.0,60,0.00,,SKC,0.00,VWS V14.01,2013-08-09 18:59:00,
2013-08-09 15:04:00,84.5,68.6,17.93,North,9,0.0,2.0,59,0.00,,SKC,0.00,VWS V14.01,2013-08-09 19:04:00,
2013-08-09 15:09:00,84.6,68.2,17.93,North,5,7.0,8.0,58,0.00,,SKC,0.00,VWS V14.01,2013-08-09 19:09:00,
2013-08-09 15:14:00,84.6,68.2,17.93,SSW,213,3.0,5.0,58,0.00,,SKC,0.00,VWS V14.01,2013-08-09 19:14:00,
2013-08-09 15:19:00,84.5,68.1,17.93,NNE,17,3.0,4.0,58,0.00,,SKC,0.00,VWS V14.01,2013-08-09 19:19:00,
2013-08-09 15:24:00,84.3,67.4,17.93,NE,50,3.0,6.0,57,0.00,,SKC,0.00,VWS V14.01,2013-08-09 19:24:00,
2013-08-09 15:29:00,83.4,68.1,17.93,NE,41,2.0,5.0,60,0.00,,SKC,0.00,VWS V14.01,2013-08-09 19:29:00,
2013-08-09 15:34:00,83.0,68.7,17.93,NNE,33,0.0,3.0,62,0.00,,SKC,0.00,VWS V14.01,2013-08-09 19:34:00,
2013-08-09 15:39:00,82.8,68.0,17.93,NNE,16,0.0,3.0,61,0.00,,SKC,0.00,VWS V14.01,2013-08-09 19:39:00,
2013-08-09 15:44:00,82.3,68.5,17.93,NNE,28,1.0,7.0,63,0.00,,SKC,0.00,VWS V14.01,2013-08-09 19:44:00,
2013-08-09 15:49:00,81.4,68.1,17.93,NE,49,3.0,7.0,64,0.00,,SKC,0.00,VWS V14.01,2013-08-09 19:49:00,
2013-08-09 15:54:00,80.8,69.3,17.93,NE,49,0.0,1.0,68,0.00,,SKC,0.00,VWS V14.01,2013-08-09 19:54:00,
2013-08-09 15:59:00,80.7,70.0,16.45,NE,49,3.0,3.0,70,0.00,,SKC,0.00,VWS V14.01,2013-08-09 19:59:00,
2013-08-09 16:04:00,80.5,71.1,16.45,NE,49,1.0,2.0,73,0.00,,SKC,0.00,VWS V14.01,2013-08-09 20:04:00,
2013-08-09 16:09:00,80.1,70.7,16.45,NE,49,2.0,3.0,73,0.00,,SKC,0.00,VWS V14.01,2013-08-09 20:09:00,
2013-08-09 16:14:00,79.7,69.1,16.45,ENE,63,5.0,5.0,70,0.00,,SKC,0.00,VWS V14.01,2013-08-09 20:14:00,
2013-08-09 16:19:00,79.6,69.0,16.45,East,80,1.0,1.0,70,0.00,,SKC,0.00,VWS V14.01,2013-08-09 20:19:00,
2013-08-09 16:24:00,79.3,68.7,16.45,ENE,69,2.0,4.0,70,0.00,,SKC,0.00,VWS V14.01,2013-08-09 20:24:00,
2013-08-09 16:29:00,78.9,68.7,16.45,ENE,65,2.0,3.0,71,0.00,,SKC,0.00,VWS V14.01,2013-08-09 20:29:00,
2013-08-09 16:34:00,78.3,68.9,16.45,ENE,67,3.0,3.0,73,0.00,,SKC,0.00,VWS V14.01,2013-08-09 20:34:00,
2013-08-09 16:39:00,77.3,69.2,16.45,ENE,57,0.0,2.0,76,0.00,,SKC,0.00,VWS V14.01,2013-08-09 20:39:00,
2013-08-09 16:44:00,76.5,69.1,16.45,NE,53,1.0,2.0,78,0.00,,SKC,0.00,VWS V14.01,2013-08-09 20:44:00,
2013-08-09 16:49:00,75.8,69.6,16.45,NE,53,1.0,3.0,81,0.00,,SKC,0.00,VWS V14.01,2013-08-09 20:49:00,
2013-08-09 16:54:00,75.0,69.1,16.45,NE,44,0.0,2.0,82,0.00,,SKC,0.00,VWS V14.01,2013-08-09 20:54:00,
2013-08-09 16:59:00,74.5,69.0,16.45,NE,44,0.0,3.0,83,0.00,,SKC,0.00,VWS V14.01,2013-08-09 20:59:00,
2013-08-09 17:04:00,74.0,68.5,16.45,NE,44,3.0,5.0,83,0.01,,SKC,0.01,VWS V14.01,2013-08-09 21:04:00,
2013-08-09 17:09:00,73.6,68.8,16.45,NE,44,0.0,0.0,85,0.02,,SKC,0.02,VWS V14.01,2013-08-09 21:09:00,
2013-08-09 17:14:00,73.7,68.9,16.45,NE,44,1.0,3.0,85,0.02,,SKC,0.02,VWS V14.01,2013-08-09 21:14:00,
2013-08-09 17:19:00,74.1,70.3,16.45,NE,44,2.0,2.0,88,0.02,,SKC,0.02,VWS V14.01,2013-08-09 21:19:00,
2013-08-09 17:24:00,74.7,70.2,16.45,NE,44,0.0,1.0,86,0.02,,SKC,0.02,VWS V14.01,2013-08-09 21:24:00,
2013-08-09 17:29:00,75.1,69.2,16.45,SSW,211,6.0,6.0,82,0.02,,SKC,0.02,VWS V14.01,2013-08-09 21:29:00,
2013-08-09 17:34:00,75.0,69.8,16.45,SSW,198,0.0,0.0,84,0.02,,SKC,0.02,VWS V14.01,2013-08-09 21:34:00,
2013-08-09 17:39:00,75.5,70.0,16.45,NNW,327,0.0,0.0,83,0.02,,SKC,0.02,VWS V14.01,2013-08-09 21:39:00,
2013-08-09 17:44:00,75.9,70.4,16.45,NNW,329,4.0,4.0,83,0.02,,SKC,0.02,VWS V14.01,2013-08-09 21:44:00,
2013-08-09 17:49:00,75.9,70.4,16.45,NNW,331,1.0,1.0,83,0.02,,SKC,0.02,VWS V14.01,2013-08-09 21:49:00,
2013-08-09 17:53:00,76.1,70.2,16.45,NNW,331,0.0,0.0,82,0.02,,SKC,0.02,VWS V14.01,2013-08-09 21:53:00,
2013-08-09 17:58:00,76.9,71.0,16.45,NNW,331,1.0,1.0,82,0.02,,SKC,0.02,VWS V14.01,2013-08-09 21:58:00,
2013-08-09 18:03:00,77.6,70.6,16.45,NNW,331,0.0,0.0,79,0.01,,SKC,0.02,VWS V14.01,2013-08-09 22:03:00,
2013-08-09 18:08:00,78.3,71.3,16.45,NNW,331,0.0,0.0,79,0.00,,SKC,0.02,VWS V14.01,2013-08-09 22:08:00,
2013-08-09 18:13:00,78.7,71.6,16.45,NNW,331,0.0,0.0,79,0.00,,SKC,0.02,VWS V14.01,2013-08-09 22:13:00,
2013-08-09 18:18:00,78.7,71.3,16.45,NNW,331,0.0,0.0,78,0.00,,SKC,0.02,VWS V14.01,2013-08-09 22:18:00,
2013-08-09 18:23:00,78.5,71.1,16.45,NNW,337,0.0,1.0,78,0.00,,SKC,0.02,VWS V14.01,2013-08-09 22:23:00,
2013-08-09 18:28:00,78.6,70.8,16.45,NNW,337,0.0,0.0,77,0.00,,SKC,0.02,VWS V14.01,2013-08-09 22:28:00,
2013-08-09 18:33:00,78.4,70.6,16.45,NNW,338,1.0,1.0,77,0.00,,SKC,0.02,VWS V14.01,2013-08-09 22:33:00,
2013-08-09 18:38:00,78.0,69.8,16.45,NNW,337,0.0,0.0,76,0.00,,SKC,0.02,VWS V14.01,2013-08-09 22:38:00,
2013-08-09 18:43:00,78.3,68.9,16.45,SSW,200,0.0,0.0,73,0.00,,SKC,0.02,VWS V14.01,2013-08-09 22:43:00,
2013-08-09 18:48:00,78.7,69.7,16.45,SSW,203,0.0,0.0,74,0.00,,SKC,0.02,VWS V14.01,2013-08-09 22:48:00,
2013-08-09 18:53:00,78.9,69.9,16.45,SSW,202,2.0,2.0,74,0.00,,SKC,0.02,VWS V14.01,2013-08-09 22:53:00,
2013-08-09 18:58:00,78.5,69.9,16.45,SSW,202,0.0,1.0,75,0.00,,SKC,0.02,VWS V14.01,2013-08-09 22:58:00,
2013-08-09 19:03:00,77.9,69.7,16.45,SSW,202,0.0,0.0,76,0.00,,SKC,0.02,VWS V14.01,2013-08-09 23:03:00,
2013-08-09 19:08:00,77.3,69.2,16.45,SSW,203,0.0,0.0,76,0.00,,SKC,0.02,VWS V14.01,2013-08-09 23:08:00,
2013-08-09 19:13:00,77.1,69.7,16.45,SSW,203,0.0,0.0,78,0.00,,SKC,0.02,VWS V14.01,2013-08-09 23:13:00,
2013-08-09 19:18:00,77.0,69.6,16.45,SSW,202,0.0,0.0,78,0.00,,SKC,0.02,VWS V14.01,2013-08-09 23:18:00,
2013-08-09 19:23:00,77.1,69.7,16.45,SSW,200,0.0,0.0,78,0.00,,SKC,0.02,VWS V14.01,2013-08-09 23:23:00,
2013-08-09 19:28:00,77.1,69.7,16.45,SSW,200,0.0,0.0,78,0.00,,SKC,0.02,VWS V14.01,2013-08-09 23:28:00,
2013-08-09 19:33:00,76.9,69.5,16.45,SSW,203,0.0,0.0,78,0.00,,SKC,0.02,VWS V14.01,2013-08-09 23:33:00,
2013-08-09 19:38:00,76.4,69.4,16.45,SSW,202,1.0,1.0,79,0.00,,SKC,0.02,VWS V14.01,2013-08-09 23:38:00,
2013-08-09 19:43:00,76.0,69.4,16.45,SSW,202,1.0,2.0,80,0.00,,SKC,0.02,VWS V14.01,2013-08-09 23:43:00,
2013-08-09 19:48:00,75.5,69.3,16.45,SSW,202,0.0,0.0,81,0.00,,SKC,0.02,VWS V14.01,2013-08-09 23:48:00,
2013-08-09 19:53:00,75.2,69.3,16.45,SSW,202,0.0,0.0,82,0.00,,SKC,0.02,VWS V14.01,2013-08-09 23:53:00,
2013-08-09 19:58:00,74.9,69.7,16.45,SSW,202,0.0,0.0,84,0.00,,SKC,0.02,VWS V14.01,2013-08-09 23:58:00,
2013-08-09 20:03:00,74.5,69.7,16.45,SSW,202,0.0,0.0,85,0.00,,SKC,0.02,VWS V14.01,2013-08-10 00:03:00,
2013-08-09 20:08:00,74.0,69.6,16.45,SSW,202,0.0,0.0,86,0.00,,SKC,0.02,VWS V14.01,2013-08-10 00:08:00,
2013-08-09 20:09:00,74.0,69.6,16.45,SSW,202,0.0,0.0,86,0.00,,SKC,0.02,VWS V14.01,2013-08-10 00:09:00,
2013-08-09 20:14:00,73.6,69.5,16.45,SSW,202,0.0,0.0,87,0.00,,SKC,0.02,VWS V14.01,2013-08-10 00:14:00,
2013-08-09 20:19:00,73.2,69.1,16.45,SSW,202,0.0,0.0,87,0.00,,SKC,0.02,VWS V14.01,2013-08-10 00:19:00,
2013-08-09 20:24:00,73.0,69.2,16.45,SSW,202,0.0,0.0,88,0.00,,SKC,0.02,VWS V14.01,2013-08-10 00:24:00,
2013-08-09 20:29:00,72.7,68.9,16.45,SSW,202,0.0,0.0,88,0.00,,SKC,0.02,VWS V14.01,2013-08-10 00:29:00,
2013-08-09 20:34:00,72.3,68.9,16.45,SSW,202,0.0,0.0,89,0.00,,SKC,0.02,VWS V14.01,2013-08-10 00:34:00,
2013-08-09 20:39:00,72.1,68.7,16.45,SSW,202,0.0,0.0,89,0.00,,SKC,0.02,VWS V14.01,2013-08-10 00:39:00,
2013-08-09 20:44:00,71.9,68.8,16.45,SSW,202,0.0,0.0,90,0.00,,SKC,0.02,VWS V14.01,2013-08-10 00:44:00,
2013-08-09 20:49:00,71.8,68.7,16.45,SSW,202,0.0,0.0,90,0.00,,SKC,0.02,VWS V14.01,2013-08-10 00:49:00,
2013-08-09 20:54:00,71.7,68.3,16.45,SSW,202,0.0,0.0,89,0.00,,SKC,0.02,VWS V14.01,2013-08-10 00:54:00,
2013-08-09 20:59:00,71.6,68.5,16.45,SSW,202,0.0,0.0,90,0.00,,SKC,0.02,VWS V14.01,2013-08-10 00:59:00,
2013-08-09 21:04:00,71.5,68.4,16.45,SSW,202,0.0,0.0,90,0.00,,SKC,0.02,VWS V14.01,2013-08-10 01:04:00,
2013-08-09 21:09:00,71.3,68.2,16.45,SSW,202,0.0,0.0,90,0.00,,SKC,0.02,VWS V14.01,2013-08-10 01:09:00,
2013-08-09 21:14:00,71.3,68.2,16.45,SSW,202,0.0,0.0,90,0.00,,SKC,0.02,VWS V14.01,2013-08-10 01:14:00,
2013-08-09 21:19:00,71.2,68.1,16.45,SSW,202,0.0,0.0,90,0.00,,SKC,0.02,VWS V14.01,2013-08-10 01:19:00,
2013-08-09 21:24:00,71.0,67.9,16.45,SSW,202,0.0,0.0,90,0.00,,SKC,0.02,VWS V14.01,2013-08-10 01:24:00,
2013-08-09 21:29:00,71.0,67.9,16.45,SSW,202,0.0,0.0,90,0.00,,SKC,0.02,VWS V14.01,2013-08-10 01:29:00,
2013-08-09 21:34:00,71.1,68.0,16.45,SSW,202,0.0,0.0,90,0.01,,SKC,0.03,VWS V14.01,2013-08-10 01:34:00,
2013-08-09 21:39:00,71.1,68.0,16.45,SSW,202,0.0,0.0,90,0.01,,SKC,0.03,VWS V14.01,2013-08-10 01:39:00,
2013-08-09 21:44:00,71.0,67.9,16.45,SSW,202,0.0,0.0,90,0.01,,SKC,0.03,VWS V14.01,2013-08-10 01:44:00,
2013-08-09 21:49:00,70.9,68.2,16.45,SSW,202,0.0,0.0,91,0.01,,SKC,0.03,VWS V14.01,2013-08-10 01:49:00,
2013-08-09 21:54:00,70.8,68.1,16.45,SSW,202,0.0,0.0,91,0.01,,SKC,0.03,VWS V14.01,2013-08-10 01:54:00,
2013-08-09 21:58:00,70.8,68.4,16.45,SSW,202,0.0,0.0,92,0.01,,SKC,0.03,VWS V14.01,2013-08-10 01:58:00,
2013-08-09 22:03:00,70.7,68.3,16.45,SSW,202,0.0,0.0,92,0.01,,SKC,0.03,VWS V14.01,2013-08-10 02:03:00,
2013-08-09 22:08:00,70.6,68.2,16.45,SSW,202,0.0,0.0,92,0.01,,SKC,0.03,VWS V14.01,2013-08-10 02:08:00,
2013-08-09 22:13:00,70.5,68.1,16.45,SSW,202,0.0,0.0,92,0.01,,SKC,0.03,VWS V14.01,2013-08-10 02:13:00,
2013-08-09 22:18:00,70.4,68.0,16.45,SSW,202,0.0,0.0,92,0.01,,SKC,0.03,VWS V14.01,2013-08-10 02:18:00,
2013-08-09 22:23:00,70.3,68.2,16.45,SSW,202,0.0,0.0,93,0.01,,SKC,0.03,VWS V14.01,2013-08-10 02:23:00,
2013-08-09 22:28:00,70.1,68.0,16.45,SSW,202,0.0,0.0,93,0.01,,SKC,0.03,VWS V14.01,2013-08-10 02:28:00,
2013-08-09 22:33:00,70.1,68.0,16.45,SSW,202,0.0,0.0,93,0.00,,SKC,0.03,VWS V14.01,2013-08-10 02:33:00,
2013-08-09 22:38:00,70.1,68.0,16.45,SSW,202,0.0,0.0,93,0.00,,SKC,0.03,VWS V14.01,2013-08-10 02:38:00,
2013-08-09 22:43:00,70.2,68.1,16.45,SSW,202,0.0,0.0,93,0.00,,SKC,0.03,VWS V14.01,2013-08-10 02:43:00,
2013-08-09 22:48:00,70.3,68.2,16.45,SSW,202,0.0,0.0,93,0.00,,SKC,0.03,VWS V14.01,2013-08-10 02:48:00,
2013-08-09 22:53:00,70.3,68.2,16.45,SSW,202,0.0,0.0,93,0.00,,SKC,0.03,VWS V14.01,2013-08-10 02:53:00,
2013-08-09 22:58:00,70.2,68.1,16.45,SSW,202,0.0,0.0,93,0.00,,SKC,0.03,VWS V14.01,2013-08-10 02:58:00,
2013-08-09 23:03:00,70.2,68.1,16.45,SSW,202,0.0,0.0,93,0.00,,SKC,0.03,VWS V14.01,2013-08-10 03:03:00,
2013-08-09 23:08:00,70.2,68.1,16.45,SSW,202,0.0,0.0,93,0.00,,SKC,0.03,VWS V14.01,2013-08-10 03:08:00,
2013-08-09 23:13:00,70.3,68.2,16.45,SSW,202,0.0,0.0,93,0.00,,SKC,0.03,VWS V14.01,2013-08-10 03:13:00,
2013-08-09 23:18:00,70.4,68.3,16.45,SSW,202,0.0,0.0,93,0.00,,SKC,0.03,VWS V14.01,2013-08-10 03:18:00,
2013-08-09 23:23:00,70.8,68.7,16.45,SSW,202,0.0,1.0,93,0.00,,SKC,0.03,VWS V14.01,2013-08-10 03:23:00,
2013-08-09 23:28:00,71.0,68.6,16.45,SSW,198,2.0,2.0,92,0.00,,SKC,0.03,VWS V14.01,2013-08-10 03:28:00,
2013-08-09 23:33:00,71.3,68.5,16.45,SSW,198,0.0,1.0,91,0.00,,SKC,0.03,VWS V14.01,2013-08-10 03:33:00,
2013-08-09 23:38:00,71.5,68.7,16.45,SSW,200,0.0,0.0,91,0.00,,SKC,0.03,VWS V14.01,2013-08-10 03:38:00,
2013-08-09 23:43:00,71.8,68.4,16.45,SSW,200,0.0,0.0,89,0.00,,SKC,0.03,VWS V14.01,2013-08-10 03:43:00,
2013-08-09 23:48:00,71.9,68.8,16.45,SSW,199,0.0,0.0,90,0.00,,SKC,0.03,VWS V14.01,2013-08-10 03:48:00,
2013-08-09 23:53:00,71.9,68.5,16.45,SSW,199,0.0,0.0,89,0.00,,SKC,0.03,VWS V14.01,2013-08-10 03:53:00,
2013-08-09 23:58:00,71.9,68.5,16.45,West,264,3.0,5.0,89,0.00,,SKC,0.03,VWS V14.01,2013-08-10 03:58:00,